When you browse on this site, cookies collect data to enhance your experience and personalize the content and advertising you see.
Visit our Privacy Policy to learn more. By continuing to use the site, you agree to this use of cookies and data.
  • In Österreich
  • Länderverzeichnis
  • Für 7 Tage
  • Wassertemperatur
  • Wetterkarte
  • News
  • Widgets
  • user-avatar
    Anmelden

    Stündliche Wetter Arnoldstein

    Heute, 19 Februar, Mittwoch

    Zeit Temperatur Niederschläge Wind Luftdruck Luftfeuchtigkeit
    00:00 +4°C° 0.1 mm 1 m/S 696 mmHg 83%
    01:00 +3°C° 0.1 mm 1 m/S 696 mmHg 84%
    02:00 +3°C° 0 mm 1 m/S 695 mmHg 86%
    03:00 +3°C° 0 mm 1 m/S 695 mmHg 88%
    04:00 +2°C° 0 mm 0 m/S 694 mmHg 91%
    05:00 +3°C° 0.2 mm 1 m/S 694 mmHg 91%
    06:00 +2°C° 0.2 mm 1 m/S 694 mmHg 92%
    07:00 +2°C° 0.2 mm 1 m/S 694 mmHg 93%
    08:00 +3°C° 0.2 mm 1 m/S 693 mmHg 89%
    09:00 +3°C° 0.2 mm 1 m/S 693 mmHg 85%
    10:00 +4°C° 0.2 mm 1 m/S 693 mmHg 80%
    11:00 +5°C° 0.1 mm 1 m/S 693 mmHg 77%
    12:00 +5°C° 0.1 mm 1 m/S 692 mmHg 75%
    13:00 +6°C° 0.1 mm 1 m/S 692 mmHg 72%
    14:00 +5°C° 0 mm 1 m/S 692 mmHg 71%
    15:00 +5°C° 0 mm 1 m/S 692 mmHg 70%
    16:00 +4°C° 0 mm 0 m/S 691 mmHg 69%
    17:00 +4°C° 0.1 mm 1 m/S 692 mmHg 73%
    18:00 +3°C° 0.1 mm 1 m/S 692 mmHg 76%
    19:00 +3°C° 0.1 mm 1 m/S 693 mmHg 79%
    20:00 +2°C° 0 mm 1 m/S 693 mmHg 78%
    21:00 +1°C° 0 mm 1 m/S 694 mmHg 78%
    22:00 +1°C° 0 mm 1 m/S 694 mmHg 77%
    23:00 +1°C° 0 mm 1 m/S 694 mmHg 76%

    Morgen, 20 Februar, Donnerstag

    Zeit Temperatur Niederschläge Wind Luftdruck Luftfeuchtigkeit
    00:00 0°C° 0 mm 1 m/S 694 mmHg 74%
    01:00 0°C° 0 mm 1 m/S 695 mmHg 73%
    02:00 0°C° 0 mm 1 m/S 695 mmHg 72%
    03:00 0°C° 0 mm 1 m/S 694 mmHg 71%
    04:00 0°C° 0 mm 1 m/S 694 mmHg 70%
    05:00 0°C° 0 mm 1 m/S 694 mmHg 69%
    06:00 0°C° 0 mm 1 m/S 694 mmHg 68%
    07:00 0°C° 0 mm 1 m/S 694 mmHg 67%
    08:00 +1°C° 0 mm 1 m/S 695 mmHg 60%
    09:00 +3°C° 0 mm 1 m/S 695 mmHg 54%
    10:00 +4°C° 0 mm 1 m/S 695 mmHg 47%
    11:00 +5°C° 0 mm 1 m/S 695 mmHg 46%
    12:00 +6°C° 0 mm 1 m/S 695 mmHg 44%
    13:00 +7°C° 0 mm 1 m/S 695 mmHg 42%
    14:00 +7°C° 0 mm 1 m/S 694 mmHg 45%
    15:00 +7°C° 0 mm 1 m/S 694 mmHg 48%
    16:00 +6°C° 0 mm 1 m/S 693 mmHg 52%
    17:00 +5°C° 0 mm 1 m/S 693 mmHg 60%
    18:00 +3°C° 0 mm 1 m/S 693 mmHg 68%
    19:00 +2°C° 0 mm 1 m/S 693 mmHg 77%
    20:00 +2°C° 0 mm 1 m/S 693 mmHg 78%
    21:00 +1°C° 0 mm 1 m/S 693 mmHg 79%
    22:00 +1°C° 0 mm 1 m/S 693 mmHg 80%
    23:00 +1°C° 0 mm 1 m/S 693 mmHg 80%

    übermorgen, 21 Februar, Freitag

    Zeit Temperatur Niederschläge Wind Luftdruck Luftfeuchtigkeit
    00:00 +1°C° 0 mm 1 m/S 693 mmHg 80%
    01:00 +1°C° 0 mm 1 m/S 693 mmHg 80%
    02:00 +1°C° 0 mm 1 m/S 693 mmHg 80%
    03:00 +1°C° 0 mm 1 m/S 693 mmHg 81%
    04:00 0°C° 0 mm 0 m/S 693 mmHg 81%
    05:00 +1°C° 0 mm 1 m/S 693 mmHg 80%
    06:00 +1°C° 0 mm 1 m/S 693 mmHg 79%
    07:00 +2°C° 0 mm 1 m/S 693 mmHg 78%
    14:00 +9°C° 0 mm 1 m/S 697 mmHg 58%
    15:00 +8°C° 0 mm 1 m/S 697 mmHg 63%
    16:00 +7°C° 0 mm 1 m/S 697 mmHg 67%
    17:00 +6°C° 0 mm 1 m/S 698 mmHg 73%
    18:00 +4°C° 0 mm 1 m/S 698 mmHg 78%
    19:00 +3°C° 0 mm 1 m/S 699 mmHg 84%
    20:00 +3°C° 0 mm 1 m/S 699 mmHg 84%
    21:00 +2°C° 0 mm 1 m/S 699 mmHg 84%
    22:00 +2°C° 0 mm 1 m/S 700 mmHg 84%
    23:00 +1°C° 0 mm 1 m/S 700 mmHg 83%

    22 Februar, Samstag

    Zeit Temperatur Niederschläge Wind Luftdruck Luftfeuchtigkeit
    00:00 +1°C° 0 mm 1 m/S 700 mmHg 82%
    01:00 +1°C° 0 mm 1 m/S 700 mmHg 81%
    02:00 +1°C° 0 mm 1 m/S 700 mmHg 80%
    03:00 +1°C° 0 mm 1 m/S 700 mmHg 79%
    04:00 0°C° 0 mm 1 m/S 700 mmHg 78%
    05:00 -1°C° 0 mm 0 m/S 700 mmHg 77%
    06:00 -1°C° 0 mm 0 m/S 700 mmHg 76%
    07:00 -1°C° 0 mm 0 m/S 700 mmHg 75%
    08:00 +1°C° 0 mm 0 m/S 700 mmHg 67%
    09:00 +3°C° 0 mm 0 m/S 700 mmHg 59%
    10:00 +5°C° 0 mm 0 m/S 701 mmHg 51%
    11:00 +6°C° 0 mm 0 m/S 701 mmHg 49%
    12:00 +7°C° 0 mm 0 m/S 701 mmHg 47%
    13:00 +9°C° 0 mm 1 m/S 701 mmHg 44%
    14:00 +8°C° 0 mm 1 m/S 700 mmHg 48%
    15:00 +8°C° 0 mm 1 m/S 700 mmHg 53%
    16:00 +7°C° 0 mm 0 m/S 699 mmHg 57%
    17:00 +6°C° 0 mm 1 m/S 699 mmHg 63%
    18:00 +5°C° 0 mm 1 m/S 699 mmHg 68%
    19:00 +3°C° 0 mm 1 m/S 699 mmHg 74%
    20:00 +3°C° 0 mm 1 m/S 700 mmHg 72%
    21:00 +3°C° 0 mm 1 m/S 700 mmHg 70%
    22:00 +3°C° 0 mm 1 m/S 700 mmHg 68%
    23:00 +3°C° 0 mm 1 m/S 700 mmHg 66%

    23 Februar, Sonntag

    Zeit Temperatur Niederschläge Wind Luftdruck Luftfeuchtigkeit
    00:00 +4°C° 0 mm 1 m/S 699 mmHg 63%
    01:00 +4°C° 0 mm 1 m/S 699 mmHg 61%
    02:00 +4°C° 0 mm 1 m/S 699 mmHg 61%
    03:00 +4°C° 0 mm 1 m/S 699 mmHg 61%
    04:00 +4°C° 0 mm 1 m/S 699 mmHg 60%
    05:00 +4°C° 0 mm 1 m/S 699 mmHg 60%
    06:00 +4°C° 0 mm 1 m/S 699 mmHg 60%
    07:00 +4°C° 0 mm 1 m/S 698 mmHg 60%
    08:00 +5°C° 0 mm 1 m/S 699 mmHg 58%
    09:00 +7°C° 0 mm 1 m/S 699 mmHg 55%
    10:00 +9°C° 0 mm 1 m/S 699 mmHg 52%
    11:00 +10°C° 0 mm 1 m/S 699 mmHg 52%
    12:00 +11°C° 0 mm 1 m/S 699 mmHg 51%
    13:00 +12°C° 0 mm 1 m/S 698 mmHg 50%
    14:00 +11°C° 0 mm 1 m/S 698 mmHg 56%
    15:00 +10°C° 0 mm 1 m/S 697 mmHg 61%
    16:00 +10°C° 0 mm 1 m/S 697 mmHg 67%
    17:00 +8°C° 0 mm 1 m/S 696 mmHg 71%
    18:00 +7°C° 0 mm 1 m/S 696 mmHg 74%
    19:00 +5°C° 0 mm 1 m/S 696 mmHg 78%
    20:00 +5°C° 0 mm 1 m/S 696 mmHg 77%
    21:00 +5°C° 0 mm 1 m/S 696 mmHg 76%
    22:00 +5°C° 0 mm 1 m/S 696 mmHg 75%
    23:00 +4°C° 0 mm 1 m/S 695 mmHg 76%

    24 Februar, Montag

    Zeit Temperatur Niederschläge Wind Luftdruck Luftfeuchtigkeit
    00:00 +4°C° 0 mm 1 m/S 695 mmHg 77%
    01:00 +4°C° 0 mm 1 m/S 695 mmHg 77%
    02:00 +4°C° 0 mm 1 m/S 695 mmHg 78%
    03:00 +4°C° 0 mm 1 m/S 694 mmHg 78%
    04:00 +4°C° 0 mm 1 m/S 694 mmHg 78%
    05:00 +4°C° 0 mm 1 m/S 694 mmHg 77%
    06:00 +4°C° 0 mm 1 m/S 694 mmHg 76%
    07:00 +5°C° 0 mm 1 m/S 695 mmHg 75%
    08:00 +6°C° 0 mm 1 m/S 695 mmHg 71%
    09:00 +8°C° 0 mm 1 m/S 696 mmHg 67%
    10:00 +10°C° 0 mm 1 m/S 697 mmHg 63%
    11:00 +11°C° 0 mm 1 m/S 697 mmHg 63%
    12:00 +12°C° 0 mm 1 m/S 698 mmHg 63%
    13:00 +13°C° 0 mm 1 m/S 698 mmHg 63%
    14:00 +12°C° 0 mm 1 m/S 698 mmHg 65%
    15:00 +12°C° 0 mm 1 m/S 698 mmHg 68%
    16:00 +11°C° 0 mm 1 m/S 698 mmHg 71%
    17:00 +10°C° 0 mm 1 m/S 698 mmHg 77%
    18:00 +9°C° 0 mm 1 m/S 698 mmHg 83%
    19:00 +7°C° 0 mm 1 m/S 698 mmHg 88%
    20:00 +7°C° 0 mm 1 m/S 698 mmHg 90%
    21:00 +7°C° 0 mm 1 m/S 698 mmHg 91%
    22:00 +6°C° 0 mm 1 m/S 698 mmHg 92%
    23:00 +6°C° 0 mm 1 m/S 698 mmHg 92%
    Mehr zeigen